Flag for Brazil Weather past 2 weeks in Salvador, Bahia, Brazil

Now
81 °F

Passing clouds.


Feels Like: 82 °F
Forecast: 70 / 78 °F
Wind: 12 mph from Southeast

Location: Salvador Aeroporto

Current Time: Aug 4, 2015 at 1:41:11 PM

Latest Report: Aug 4, 2015 at 1:00 PM


Visibility: N/A

Pressure: 30.09 "Hg

Humidity: 54%

Dew point: 63 °F

Location of SalvadorLocation

Historic Weather in Salvador — Graph

°F

Salvador temperature yesterday

Maximum temperature yesterday: 81 °F (at 11:00 AM)
Minimum temperature yesterday: 73 °F (at 12:00 AM)
Average temperature yesterday: 76 °F

Past Weeks' High & Low Weather Summary

 TemperatureHumidityPressure
High86 °F (Jul 31, 12:00 PM)100% (Aug 1, 10:00 AM)30.15 "Hg (Aug 1, 10:00 AM)
Low41 °F (Aug 1, 10:00 AM)49% (Jul 31, 12:00 PM)30.01 "Hg (Jul 25, 3:00 PM)
Average76 °F71%30.08 "Hg
* Reported Jul 20 12:00 Noon — Aug 4 12:00 Noon, Salvador, Weather by CustomWeather, © 2015

Note: Actual official high and low records may vary slightly from our data, if they occured in-between our weather recording intervals... More about our weather records

Advertising

Salvador weather history for previous 24 hours

 ConditionsComfort  
Time TempWeatherWind HumidityBarometerVisibility
12:00 PM
Tue, Aug 4
81 °FPassing clouds.8 mph58%30.09 "HgN/A
11:00 AM81 °FPassing clouds.10 mph51%30.12 "HgN/A
10:00 AM81 °FPassing clouds.8 mph51%30.12 "HgN/A
9:00 AM79 °FPassing clouds.8 mph54%30.12 "HgN/A
8:00 AM79 °FPassing clouds.9 mph54%30.12 "HgN/A
7:00 AM75 °FScattered clouds.8 mph65%30.09 "HgN/A
6:00 AM73 °FScattered clouds.6 mph74%30.09 "HgN/A
5:00 AM70 °FPassing clouds.7 mph78%30.09 "HgN/A
4:00 AM70 °FPassing clouds.3 mph78%30.07 "HgN/A
3:00 AM73 °FPassing clouds.6 mph69%30.09 "HgN/A
2:00 AM73 °FPassing clouds.7 mph69%30.09 "HgN/A
1:00 AM73 °FPassing clouds.8 mph74%30.09 "HgN/A
12:00 AM73 °FPassing clouds.7 mph74%30.12 "HgN/A
11:00 PM
Mon, Aug 3
75 °FPassing clouds.8 mph65%30.12 "HgN/A
10:00 PM75 °FPassing clouds.9 mph65%30.12 "HgN/A
9:00 PM75 °FPassing clouds.8 mph61%30.12 "HgN/A
8:00 PM75 °FPassing clouds.7 mph61%30.09 "HgN/A
7:00 PM75 °FPassing clouds.7 mph65%30.09 "HgN/A
6:00 PM77 °FPassing clouds.8 mph54%30.07 "HgN/A
5:00 PM77 °FScattered clouds.9 mph54%30.07 "HgN/A
4:00 PM79 °FScattered clouds.12 mph51%30.07 "HgN/A
3:00 PM79 °FScattered clouds.10 mph58%30.07 "HgN/A
2:00 PM81 °FScattered clouds.13 mph51%30.07 "HgN/A
1:00 PM81 °FScattered clouds.13 mph51%30.09 "HgN/A
Weather by CustomWeather, © 2015

See weather overviewHow to use our weather pages